STARLINK-33965, 64755

Orbit data source: Space-Track

STARLINK-33965, 64755 is a payload satellite owned by SpaceX/Seattle (US) in LEO that was launched on Tue, 08 Jul 2025 UTC via an FALCON 9 launch vehicle from the Air Force Eastern Test Range (AFETR). Payload-class satellites include a variety of spacecraft equipped with specific instruments for various scientific and technological missions. These include communications satellites like Starlink; space stations such as the ISS; scientific satellites like the Hubble; Earth observation satellites from companies like Planet Labs, Umbra, and HawkEye 360; GPS; miniature CubeSats for education and research; and military/defense satellites.

Loading next visibility...
Identifier
64755, 2025-147A
Orbit
LEO
Country
Flag of USUS
Related business
Manufacturer
SpaceX/Seattle
Mission
Operational Commercial Communications
Bus & Motor
STARLINK V2MO, Unknown motor
Mass
575 kg wet, ~530 kg dry
Launch date (UTC)
2025-07-08 (1 year ago)
Launch vehicle
FALCON 9
Launch site
Air Force Eastern Test Range (AFETR)
Object type
Payload
Rocket body
Debris
Shape & HBR
Box + 1 Pan, 17.7 m
Radar Cross Section
41.120 m², Large (>1 m²)

Expand to show TLE details & history
Last TLE update: 8 hours ago

TLE from 8 hours ago
0 STARLINK-33965
1 64755U 25147A   26221.77534575  .00006335  00000-0  19842-3 0  9996
2 64755  53.1560 248.5881 0001084  75.0223 285.0900 15.34406302 62276
Epoch: 2026-08-09T18:36Z
TLE epoch observation values (Epoch: 2026-08-09T18:36:29.872Z)
Latitude
Longitude
11.19614°
Altitude
463.392 km
Speed
7.636 km/s
True Right ascension
16h 34m 21s
True Declination
0° 00' 00"
Sunlit
Object was in daylight at epoch
Visualization orbit readout
Latitude
Unknown
Longitude
Unknown
Altitude
Unknown
Speed
Unknown
Apparent Right ascension
Unknown
Apparent Declination
Unknown
Sunlit
N/A
Visualization observer readout
Local Sidereal Time
16:41:36
Azimuth
Unknown
Elevation
Unknown
Doppler factor
Unknown
Orbital elements
Apogee altitude
463.684 km
Perigee altitude
462.2 km
Semi-major axis
6,841.079 km
Eccentricity
0.00011
Inclination
53.156°
RAAN
248.5881°
Arg. of periapsis
75.0223°
True anomaly
285.07801°
Mean anomaly
285.09°
Eccentric anomaly
285.084°
Mean motion
3.8358 °/min
Orbital period
93.85 mins
BSTAR
0.00019842
Loading maneuver chart data...
Computing Atmospheric mass density...
Loading historical data...
Loading historical data...
Loading historical data...
Loading historical data...
Loading historical data...
Loading historical data...
Loading historical data...

Documentation

Showing up to 5 results
|